Location: Dreilärchen
(47.9312°N, 8.6113°E)
Time: 07:19:10
(UTC+00:00)

Cosmos 2184 Rocket - Visible Passes

Search period start: 06 October 2022 00:00
Search period end: 16 October 2022 00:00
Orbit: 959 x 1002 km, 82.9° (Epoch: 05 October)

Date Brightness Start Highest point End Pass type
(mag) Time Alt. Az. Time Alt. Az. Time Alt. Az.
06 Oct 6.5 01:10:51 11° NNW 01:10:51 11° NNW 01:11:12 10° NNW visible
06 Oct 6.6 22:08:08 11° NNE 22:08:08 11° NNE 22:08:24 10° NNE visible
06 Oct 6.4 23:52:54 16° N 23:52:54 16° N 23:54:10 10° N visible
07 Oct 6.5 22:34:56 14° NNE 22:34:56 14° NNE 22:35:39 10° NNE visible
08 Oct 6.5 00:19:43 14° NNW 00:19:43 14° NNW 00:20:38 10° N visible
08 Oct 6.5 23:01:45 15° N 23:01:45 15° N 23:02:38 10° N visible
09 Oct 6.6 00:46:31 10° NNW 00:46:31 10° NNW 00:46:35 10° NNW visible
09 Oct 6.5 23:28:33 14° N 23:28:33 14° N 23:29:25 10° N visible
10 Oct 6.6 22:10:35 11° NNE 22:10:35 11° NNE 22:10:51 10° NNE visible
10 Oct 6.6 23:55:21 12° NNW 23:55:21 12° NNW 23:55:55 10° N visible
11 Oct 6.6 22:37:23 12° N 22:37:23 12° N 22:37:52 10° N visible
12 Oct 6.7 23:04:09 12° N 23:04:09 12° N 23:04:40 10° N visible
13 Oct 6.7 23:30:56 11° N 23:30:56 11° N 23:31:12 10° N visible
14 Oct 6.7 22:12:57 11° N 22:12:57 11° N 22:13:05 10° N visible
15 Oct 6.7 22:39:43 11° N 22:39:43 11° N 22:39:54 10° N visible
